Mississinewa Lake Weather Center

Moon Phase Calendar



Mississinewa Lake Water Level
Online Cameras

 


      

Current Conditions in Mount Vernon
10/29/2020 6:02:45 AM

44°F
Feels Like 39
Rain
Humidity
94%
Pressure
29.77"
Wind
5 mph (N)
Dew Point
42°F
UV Index
3/10 (Moderate)
Visibility
6 mi

Hourly Forecast

Date & Time Thu, Oct 29
6:00 AM
Thu, Oct 29
7:00 AM
Thu, Oct 29
8:00 AM
Thu, Oct 29
9:00 AM
Thu, Oct 29
10:00 AM
Thu, Oct 29
11:00 AM
Thu, Oct 29
12:00 PM
Thu, Oct 29
1:00 PM
Thu, Oct 29
2:00 PM
Thu, Oct 29
3:00 PM
Thu, Oct 29
4:00 PM
Thu, Oct 29
5:00 PM
Thu, Oct 29
6:00 PM
Thu, Oct 29
7:00 PM
Thu, Oct 29
8:00 PM
Thu, Oct 29
9:00 PM
Thu, Oct 29
10:00 PM
Thu, Oct 29
11:00 PM
Fri, Oct 30
12:00 AM
Fri, Oct 30
1:00 AM
Fri, Oct 30
2:00 AM
Fri, Oct 30
3:00 AM
Fri, Oct 30
4:00 AM
Fri, Oct 30
5:00 AM
Fri, Oct 30
6:00 AM
Fri, Oct 30
7:00 AM
Fri, Oct 30
8:00 AM
Fri, Oct 30
9:00 AM
Fri, Oct 30
10:00 AM
Fri, Oct 30
11:00 AM
Fri, Oct 30
12:00 PM
Fri, Oct 30
1:00 PM
Fri, Oct 30
2:00 PM
Fri, Oct 30
3:00 PM
Fri, Oct 30
4:00 PM
Fri, Oct 30
5:00 PM
Fri, Oct 30
6:00 PM
Fri, Oct 30
7:00 PM
Fri, Oct 30
8:00 PM
Fri, Oct 30
9:00 PM
Fri, Oct 30
10:00 PM
Fri, Oct 30
11:00 PM
Sat, Oct 31
12:00 AM
Sat, Oct 31
1:00 AM
Sat, Oct 31
2:00 AM
Sat, Oct 31
3:00 AM
Sat, Oct 31
4:00 AM
Sat, Oct 31
5:00 AM
Condition
Rain

Rain

Rain

Rain

Rain

Clouds

Clouds

Clouds

Clouds

Clouds

Clouds

Clouds

Clouds

Clouds

Clouds

Clouds

Clouds

Clouds

Clouds

Clouds

Clouds

Clouds

Clouds

Clouds

Clouds

Clouds

Clouds

Clear

Clear

Clear

Clear

Clouds

Clouds

Clouds

Clouds

Clouds

Clouds

Clouds

Clouds

Clear

Clear

Clear

Clear

Clear

Clear

Clear

Clear

Clear
Temperature 44°F43°F43°F42°F43°F44°F44°F46°F47°F48°F50°F52°F50°F46°F45°F44°F43°F44°F44°F43°F42°F40°F38°F38°F36°F35°F34°F34°F38°F41°F43°F45°F46°F46°F46°F46°F44°F40°F39°F38°F37°F36°F36°F35°F35°F35°F34°F34°F
Feels Like 38°F37°F36°F35°F36°F36°F36°F38°F40°F41°F42°F43°F42°F39°F37°F35°F35°F35°F35°F34°F33°F32°F30°F29°F28°F27°F26°F27°F29°F32°F34°F36°F37°F37°F38°F38°F38°F34°F32°F31°F31°F30°F29°F29°F28°F28°F27°F27°F
Cloudiness 100%100%100%100%100%100%100%100%100%100%100%83%87%87%79%26%47%61%69%75%79%88%67%60%51%43%36%0%1%3%7%11%14%64%57%43%32%26%21%0%0%0%0%0%0%0%0%0%
Visibility 6 mi6 mi6 mi6 mi6 mi6 mi6 mi6 mi6 mi6 mi6 mi6 mi6 mi6 mi6 mi6 mi6 mi6 mi6 mi6 mi6 mi6 mi6 mi6 mi6 mi6 mi6 mi6 mi6 mi6 mi6 mi6 mi6 mi6 mi6 mi6 mi6 mi6 mi6 mi6 mi6 mi6 mi6 mi6 mi6 mi6 mi6 mi6 mi
Precipitation 71%71%75%74%65%65%65%61%55%35%34%24%24%24%20%0%0%0%0%0%0%0%0%0%0%0%0%0%0%0%0%0%0%0%0%0%0%0%0%0%0%0%0%0%0%0%0%0%
Humidity 94%89%87%86%83%78%77%66%60%57%54%55%64%73%77%82%85%81%80%78%78%81%85%85%86%88%91%88%76%68%63%59%57%57%57%57%61%70%74%77%80%82%84%85%86%86%87%88%
Dew Point 42°F40°F39°F39°F38°F38°F37°F36°F34°F34°F34°F36°F39°F38°F38°F39°F39°F39°F38°F37°F36°F35°F34°F34°F33°F32°F31°F30°F30°F30°F31°F31°F30°F31°F31°F30°F31°F30°F30°F30°F30°F29°F29°F29°F28°F28°F29°F29°F
Pressure 29.77"29.77"29.8"29.8"29.8"29.8"29.77"29.77"29.77"29.77"29.8"29.8"29.8"29.83"29.85"29.88"29.91"29.94"29.94"29.97"29.97"30"30.03"30.03"30.06"30.09"30.12"30.15"30.18"30.21"30.21"30.24"30.24"30.21"30.21"30.24"30.24"30.27"30.3"30.33"30.33"30.33"30.33"30.33"30.33"30.36"30.36"30.36"
Wind Speed 7.9 mph8.1 mph8 mph8.1 mph8.6 mph8.8 mph9.8 mph9.2 mph7.2 mph7 mph8.6 mph9.6 mph8.8 mph8.9 mph10.8 mph11.9 mph10.9 mph10.7 mph10.9 mph10.6 mph10.4 mph9.5 mph8.7 mph8.4 mph8 mph8.4 mph8.2 mph7.6 mph9 mph9.8 mph9.7 mph9.1 mph9.2 mph8.2 mph7.6 mph6.6 mph4.4 mph4.1 mph4.9 mph5.2 mph4.8 mph4.8 mph5.1 mph4.8 mph4.8 mph5.7 mph6.5 mph7 mph
Wind
Direction
45°
NE
43°
NE
62°
ENE
48°
NE
52°
NE
35°
NE
28°
NNE
21°
NNE
15°
NNE
29°
NNE

N

N

N

N
359°
N

N

N

N

N
360°
N
355°
N
352°
N
347°
NNW
346°
NNW
338°
NNW
335°
NNW
340°
NNW
349°
N
357°
N
343°
NNW
334°
NNW
329°
NNW
330°
NNW
337°
NNW
340°
NNW
340°
NNW
345°
NNW
357°
N
11°
N
24°
NNE
40°
NE
57°
ENE
73°
ENE
89°
E
108°
ESE
122°
ESE
131°
SE
139°
SE

Daily Forecast

Date High Low Precip. Humidity
Today
Oct 29

Rain
52 °F
43 °F
75%
62%
Friday
Oct 30

Clouds
46 °F
34 °F
0%
57%
Saturday
Oct 31

Clouds
53 °F
34 °F
0%
54%
Sunday
Nov 1

Clear
48 °F
35 °F
0%
56%
Monday
Nov 2

Clear
44 °F
28 °F
0%
56%
Tuesday
Nov 3

Clear
53 °F
34 °F
0%
50%
Wednesday
Nov 4

Clear
60 °F
43 °F
0%
47%
Thursday
Nov 5

Clouds
63 °F
46 °F
0%
56%
Friday
Nov 6

Clouds
64 °F
48 °F
0%
71%
Saturday
Nov 7

Clouds
66 °F
55 °F
0%
62%
Sunday
Nov 8

Rain
69 °F
54 °F
39%
67%
Monday
Nov 9

Rain
65 °F
60 °F
100%
89%
Tuesday
Nov 10

Rain
63 °F
60 °F
100%
96%
Wednesday
Nov 11

Rain
68 °F
47 °F
100%
75%
Thursday
Nov 12

Clouds
40 °F
29 °F
70%
72%
Friday
Nov 13

Clear
43 °F
30 °F
0%
57%


Temperature 8-14 Day Outlook



Precipitation 8-14 Day Outlook




Quick Links
Mississinewa Lake News
Mississinewa Lake Photos
Mississinewa Lake Videos




About Us
Contact Us
Site Map
Search Site
Advertise With Us
   
Mississinewa.LakesOnline.com
THE MISSISSINEWA LAKE WEBSITE

Copyright 2020, Lakes Online
Privacy    |    Legal